Tiempo atmosférico en la estación meteorológica de Mosqueruela, Teruel (1505 m.)



Fecha
DESCASC
Temp. máxima en grados centígrados (hora)
DESCASC
Temp. mínima en grados centígrados (hora)
DESCASC
Temp. media en grados centígrados
DESCASC
Racha de viento máxima en m/sg (hora)
DESCASC
Velocidad máxima media en intervalos de 10 minutos(hora)
DESCASC
Precipitaciones diarias en mm
DESCASC
Precipitaciones de 00:00 a 06:00 en mm
DESCASC
Precipitaciones de 06:00 a 12:00 en mm
DESCASC
Precipitaciones de 12:00 a 18:00 en mm
DESCASC
Precipitaciones de 18:00 a 24:00 en mm
DESCASC
19-01-2020 2 (00:40) -4.2 (22:30) -1.1 17.22 (14:20) 11.11 (06:10) 7 0.2 2 4.8 0
18-01-2020 8 (15:40) -1.5 (00:20) 3.3 11.67 (14:10) 7.5 (08:00) 0 0 0 0 0
17-01-2020 7 (13:10) -0.7 (23:59) 3.2 19.17 (18:50) 13.33 (21:00) 0 0 0 0 0
16-01-2020 10.4 (14:30) 0.8 (00:00) 5.6 8.61 (13:40) 5.56 (13:00) 0 0 0 0 0
15-01-2020 10.4 (15:50) -1.9 (-00:0) 4.2 11.39 (14:10) 7.78 (15:00) 0 0 0 0 0
14-01-2020 11.7 (14:40) 0.4 (00:00) 6 7.22 (14:40) 5 (15:10) 0 0 0 0 0
13-01-2020 12.3 (13:50) -1.8 (-00:0) 5.3 6.39 (23:50) 5.56 (22:50) 0 0 0 0 0
12-01-2020 10.6 (14:40) -1.1 (08:20) 4.8 11.94 (10:50) 9.17 (10:40) 0 0 0 0 0
11-01-2020 8.9 (15:10) -1.6 (-00:0) 3.6 10.83 (03:10) 9.44 (03:00) 0 0 0 0 0
10-01-2020 6 (00:00) -0.7 (-00:0) 2.7 20 (10:40) 12.78 (11:20) 0 0 0 0 0
09-01-2020 11.8 (14:10) 0.3 (00:00) 6.1 10 (23:59) 7.22 (23:50) 0 0 0 0 0
08-01-2020 10.7 (13:40) 1 (00:00) 5.8 16.11 (02:10) 12.78 (02:10) 0 0 0 0 0
07-01-2020 13.9 (14:00) 2.8 (00:00) 8.3 14.44 (09:20) 10.83 (09:30) 0 0 0 0 0
06-01-2020 14.5 (13:10) 2.6 (00:00) 8.5 14.17 (22:30) 10.28 (23:10) 0 0 0 0 0
05-01-2020 14.8 (14:20) 3.2 (00:00) 9 5 (03:00) 4.17 (02:10) 0 0 0 0 0
04-01-2020 8.8 (14:30) 0 (00:00) 4.4 17.5 (00:20) 14.44 (02:20) 0 0 0 0 0
03-01-2020 13.6 (13:20) 2.9 (00:00) 8.3 18.06 (22:10) 14.17 (22:00) 0 0 0 0 0
02-01-2020 16.6 (15:20) 3 (00:00) 9.8 4.44 (03:20) 3.61 (04:30) 0 0 0 0 0
01-01-2020 16.4 (14:30) 3.6 (00:00) 10 5.28 (06:40) 2.78 (06:40) 0 0 0 0 0
31-12-2019 -- (--) -- (--) -- -- (--) -- (--) -- -- -- 0 0
30-12-2019 -- (--) -- (--) -- -- (--) -- (--) -- 0 0 0 --
29-12-2019 14.8 (15:30) 2 (00:00) 8.4 3.61 (00:30) 2.5 (08:10) 0 0 0 0 0
28-12-2019 15.8 (13:50) 2.9 (00:00) 9.4 13.06 (05:20) 9.72 (05:10) 0 0 0 0 0
27-12-2019 16.7 (13:40) 4.4 (00:00) 10.6 11.11 (22:20) 9.17 (22:20) 0 0 0 0 0
26-12-2019 13.9 (14:10) 6.6 (00:00) 10.2 13.89 (19:00) 11.11 (19:00) 0 0 0 0 0
25-12-2019 18.5 (15:00) 6.2 (00:00) 12.3 8.33 (06:20) 7.5 (06:20) 0 0 0 0 0
24-12-2019 14.1 (14:00) 5.7 (19:20) 9.9 18.89 (06:30) 13.06 (07:40) 0 0 0 0 0
23-12-2019 9.5 (14:10) 2.3 (00:00) 5.9 23.33 (01:00) 15.83 (05:00) 0 0 0 0 0

Gráficas

Temp. máximas Temp. mínimas Temp. medias Precipitaciones Rachas de viento máximas Velocidades máximas media en intervalos de 10 minutos

Datos horarios

Fecha y hora oficial Temperatura (ºC) Velocidad del viento (km/h) Dirección del viento Racha (km/h) Dirección de racha Precipitación (mm) Presión (hPa) Tendencia (hPa) Humedad (%)
2020-01-21 23:00:00 0.1 0 Calma 0 Calma 2.6 -- -- 100
2020-01-21 22:00:00 -0.1 0 Calma -- -- 3 -- -- 100
2020-01-21 21:00:00 -0.1 0 Calma -- -- 2.6 -- -- 100
2020-01-21 20:00:00 -0.2 0 Calma -- -- 3.8 -- -- 100
2020-01-21 19:00:00 -0.4 0 Calma -- -- 3.2 -- -- 100
2020-01-21 18:00:00 -0.4 0 Calma -- -- 3.6 -- -- 100
2020-01-21 17:00:00 -0.3 0 Calma 20 Este 4.8 -- -- 100
2020-01-21 16:00:00 -0.1 16 Este 48 Este 5.2 -- -- 100
2020-01-21 15:00:00 0.2 22 Norte 41 Norte 5.6 -- -- 97
2020-01-21 14:00:00 -0.2 22 Norte 40 Noroeste 3.2 -- -- 97
2020-01-21 13:00:00 -0.9 21 Noroeste 36 Noroeste 1.6 -- -- 92
2020-01-21 12:00:00 -1 22 Noroeste 38 Noroeste 0 -- -- 95
2020-01-21 11:00:00 -2 23 Noroeste 37 Noroeste 0.2 -- -- 96
2020-01-21 10:00:00 -2.6 23 Noroeste 45 Noroeste 0 -- -- 94
2020-01-21 09:00:00 -2.7 28 Noroeste 49 Noroeste 0 -- -- 96
2020-01-21 08:00:00 -3 26 Noroeste 44 Noroeste 0 -- -- 94
2020-01-21 07:00:00 -2.9 29 Noroeste 46 Noroeste 0 -- -- 95
2020-01-21 06:00:00 -3 21 Noroeste 45 Noroeste 0.2 -- -- 96
2020-01-21 05:00:00 -3.3 24 Noroeste 47 Norte 0.4 -- -- 97
2020-01-21 04:00:00 -2.9 27 Noroeste 42 Noroeste 0.2 -- -- 96
2020-01-21 03:00:00 -2.7 24 Noroeste 40 Noroeste 0.4 -- -- 98
2020-01-21 02:00:00 -2.9 23 Norte 47 Noroeste 0.8 -- -- 97
2020-01-21 01:00:00 -3.1 24 Noroeste 48 Noroeste 0.2 -- -- 96
2020-01-21 00:00:00 -2.9 28 Norte 54 Norte 0.6 -- -- 96
2020-01-20 23:00:00 -2.9 31 Noroeste 58 Noroeste 0.8 -- -- 95
2020-01-20 22:00:00 -2.7 33 Noroeste 62 Norte 0.6 -- -- 96
2020-01-20 21:00:00 -2.8 31 Norte 53 Norte 0.6 -- -- 96
2020-01-20 20:00:00 -2.8 29 Norte 54 Norte 0.6 -- -- 95
2020-01-20 19:00:00 -3 36 Norte 55 Norte 0.6 -- -- 95
2020-01-20 18:00:00 -3.2 28 Norte 60 Norte 0.4 -- -- 93
2020-01-20 17:00:00 -3.1 30 Norte 58 Noroeste 0.8 -- -- 93
2020-01-20 16:00:00 -2.9 30 Norte 56 Norte 0.6 -- -- 93
2020-01-20 15:00:00 -2.8 30 Norte 52 Norte 0.6 -- -- 89
2020-01-20 14:00:00 -3 32 Norte 64 Norte 0.6 -- -- 89
2020-01-20 13:00:00 -3 29 Norte 51 Norte 0 -- -- 90
2020-01-20 12:00:00 -3.1 29 Norte 46 Norte 0.2 -- -- 88
2020-01-20 11:00:00 -3.6 26 Norte 48 Norte 0 -- -- 89
2020-01-20 10:00:00 -4.1 30 Norte 53 Noroeste 0 -- -- 89
2020-01-20 09:00:00 -4.4 32 Norte 53 Norte 0 -- -- 89
2020-01-20 08:00:00 -5 35 Noroeste 59 Noroeste 0 -- -- 87
2020-01-20 07:00:00 -5.2 33 Noroeste 69 Noroeste 0 -- -- 87
2020-01-20 06:00:00 -5.4 36 Noroeste 71 Noroeste 0 -- -- 88
2020-01-20 05:00:00 -5.7 31 Noroeste 56 Noroeste 0 -- -- 88
2020-01-20 04:00:00 -5.7 34 Noroeste 66 Noroeste 0 -- -- 86
2020-01-20 03:00:00 -5.2 38 Noroeste 61 Noroeste 0 -- -- 83
2020-01-20 02:00:00 -4.5 37 Noroeste 62 Noroeste 0 -- -- 89
2020-01-20 01:00:00 -3.8 38 Noroeste 67 Noroeste 0 -- -- 86
2020-01-20 00:00:00 -3.9 33 Noroeste 53 Noroeste 0 -- -- 84
2020-01-19 23:00:00 -3.9 30 Noroeste 47 Noroeste 0 -- -- 84
2020-01-19 22:00:00 -3.9 26 Noroeste 43 Noroeste 0 -- -- 86
2020-01-19 21:00:00 -3.4 25 Noroeste 41 Noroeste 0 -- -- 85
2020-01-19 20:00:00 -2.7 20 Noroeste 40 Noroeste 0 -- -- 85
2020-01-19 19:00:00 -2.5 22 Noroeste 47 Noroeste 0 -- -- 89
2020-01-19 18:00:00 -2.1 26 Noroeste 41 Noroeste 0.2 -- -- 93
2020-01-19 17:00:00 -1.6 29 Norte 62 Noroeste 0.6 -- -- 96
2020-01-19 16:00:00 -1.2 35 Noroeste 58 Noroeste 0.6 -- -- 94
2020-01-19 15:00:00 -1.2 35 Noroeste 62 Norte 1.4 -- -- 94
2020-01-19 14:00:00 -1.4 38 Noroeste 56 Norte 1.2 -- -- 96
2020-01-19 13:00:00 -1.2 29 Noroeste 44 Noroeste 0.8 -- -- 95
2020-01-19 12:00:00 -1.1 24 Noroeste 41 Noroeste 0.8 -- -- 96
2020-01-19 11:00:00 -0.9 28 Oeste 49 Oeste 0.6 -- -- 95
2020-01-19 10:00:00 -0.9 35 Oeste 46 Oeste 0.6 -- -- 93
2020-01-19 09:00:00 -1.3 31 Oeste 50 Oeste 0 -- -- 95
2020-01-19 08:00:00 -1.3 26 Oeste 51 Noroeste 0 -- -- 92
2020-01-19 07:00:00 -1.1 37 Oeste 52 Oeste 0 -- -- 86
2020-01-19 06:00:00 -1 38 Oeste 49 Noroeste 0 -- -- 90
2020-01-19 05:00:00 0 32 Oeste 43 Oeste 0.2 -- -- 92
2020-01-19 04:00:00 0.7 29 Oeste 46 Oeste 0 -- -- 88
2020-01-19 03:00:00 1.3 29 Oeste 40 Oeste 0 -- -- 83
2020-01-19 02:00:00 1.3 27 Oeste 36 Oeste 0 -- -- 84
2020-01-19 01:00:00 1.4 12 Noroeste 31 Noroeste 0 -- -- 88
2020-01-19 00:00:00 1.3 7 Sudoeste 12 Sudoeste 0 -- -- 93
2020-01-18 23:00:00 3.7 0 Calma 12 Noroeste 0 -- -- 85
2020-01-18 22:00:00 4.6 4 Sudoeste 21 Noroeste 0 -- -- 83
2020-01-18 21:00:00 4.1 5 Nordeste 40 Sudoeste 0 -- -- 85
2020-01-18 20:00:00 4.2 9 Norte 21 Oeste 0 -- -- 85
2020-01-18 19:00:00 4.1 3 Sur 9 Sur 0 -- -- 85
2020-01-18 18:00:00 4.7 3 Sur 17 Sur 0 -- -- 81
2020-01-18 17:00:00 5.5 12 Sudoeste 33 Oeste 0 -- -- 76
2020-01-18 16:00:00 7.6 23 Oeste 35 Oeste 0 -- -- 67
2020-01-18 15:00:00 7.1 21 Oeste 42 Sudoeste 0 -- -- 68
2020-01-18 14:00:00 6.4 19 Sudoeste 33 Sudoeste 0 -- -- 69
2020-01-18 13:00:00 5.7 18 Sudoeste 39 Sudoeste 0 -- -- 68
2020-01-18 12:00:00 6.1 23 Sudoeste 41 Sudoeste 0 -- -- 59
2020-01-18 11:00:00 5.6 13 Sur 25 Oeste 0 -- -- 46
2020-01-18 10:00:00 5.5 15 Sudoeste 25 Sudoeste 0 -- -- 38
2020-01-18 09:00:00 3.1 8 Sudoeste 27 Oeste 0 -- -- 38
2020-01-18 08:00:00 3.1 27 Oeste 36 Oeste 0 -- -- 39
2020-01-18 07:00:00 2.9 14 Sudoeste 22 Sudoeste 0 -- -- 37
2020-01-18 06:00:00 1.8 12 Sudoeste 19 Sudoeste 0 -- -- 36
2020-01-18 05:00:00 1.8 14 Sudoeste 22 Oeste 0 -- -- 42
2020-01-18 04:00:00 0.5 3 Sudoeste 11 Sur 0 -- -- 60
2020-01-18 03:00:00 1.1 6 Sudoeste 17 Sudoeste 0 -- -- 62
2020-01-18 02:00:00 0.6 2 Oeste 23 Sudoeste 0 -- -- 67
2020-01-18 01:00:00 -1.4 4 Oeste 15 Sudoeste 0 -- -- 77
2020-01-18 00:00:00 -0.7 5 Sudoeste 17 Sudoeste 0 -- -- 76
2020-01-17 23:00:00 1 11 Oeste 55 Oeste 0 -- -- 69
2020-01-17 22:00:00 1.5 39 Oeste 60 Oeste 0 -- -- 71
2020-01-17 21:00:00 1.8 48 Oeste 66 Oeste 0 -- -- 74
2020-01-17 20:00:00 2.2 36 Noroeste 65 Oeste 0 -- -- 74
2020-01-17 19:00:00 2.7 42 Oeste 69 Oeste 0 -- -- 69
2020-01-17 18:00:00 3.1 44 Oeste 62 Noroeste 0 -- -- 68
2020-01-17 17:00:00 4.1 41 Oeste 67 Oeste 0 -- -- 66
2020-01-17 16:00:00 4.7 24 Oeste 54 Noroeste 0 -- -- 63
2020-01-17 15:00:00 5.3 24 Oeste 58 Oeste 0 -- -- 65
2020-01-17 14:00:00 7 21 Oeste 47 Oeste 0 -- -- 58
2020-01-17 13:00:00 6.8 26 Oeste 53 Oeste 0 -- -- 59
2020-01-17 12:00:00 6.1 25 Oeste 46 Oeste 0 -- -- 62
2020-01-17 11:00:00 6 17 Oeste 31 Oeste 0 -- -- 59
2020-01-17 10:00:00 3.8 8 Noroeste 29 Noroeste 0 -- -- 70
2020-01-17 09:00:00 2.8 21 Noroeste 37 Oeste 0 -- -- 73
2020-01-17 08:00:00 2.2 23 Noroeste 44 Oeste 0 -- -- 76
2020-01-17 07:00:00 2.9 21 Oeste 34 Oeste 0 -- -- 74
2020-01-17 06:00:00 3.5 9 Noroeste 33 Oeste 0 -- -- 70
2020-01-17 05:00:00 6.2 27 Oeste 54 Sudoeste 0 -- -- 63
2020-01-17 04:00:00 5.5 28 Oeste 51 Oeste 0 -- -- 44
2020-01-17 03:00:00 5.4 24 Sudoeste 46 Sudoeste 0 -- -- 53
2020-01-17 02:00:00 4.2 9 Noroeste 22 Sudeste 0 -- -- 65
2020-01-17 01:00:00 4.5 11 Sudoeste 37 Sudoeste 0 -- -- 65
2020-01-17 00:00:00 3.2 13 Sudoeste 25 Sudoeste 0 -- -- 67
2020-01-16 23:00:00 2.2 6 Sur 14 Sudoeste 0 -- -- 85
2020-01-16 22:00:00 1 4 Sudoeste 11 Sudoeste 0 -- -- 90
2020-01-16 21:00:00 2.3 9 Sudoeste 12 Sudoeste 0 -- -- 90
2020-01-16 20:00:00 2.5 6 Sudoeste 12 Sudoeste 0 -- -- 90
2020-01-16 19:00:00 3.6 8 Sudoeste 12 Sur 0 -- -- 84
2020-01-16 18:00:00 4.9 5 Sudoeste 18 Sudoeste 0 -- -- 72
2020-01-16 17:00:00 8.8 8 Sudoeste 22 Sudoeste 0 -- -- 59
2020-01-16 16:00:00 10 10 Sudoeste 26 Oeste 0 -- -- 54
2020-01-16 15:00:00 9.6 14 Sur 30 Sudeste 0 -- -- 59
2020-01-16 14:00:00 10.2 15 Sudeste 31 Sudeste 0 -- -- 58
2020-01-16 13:00:00 9.7 20 Sur 29 Sudeste 0 -- -- 60
2020-01-16 12:00:00 8.7 18 Sudeste 27 Sudeste 0 -- -- 64
2020-01-16 11:00:00 7.8 14 Sur 21 Sudeste 0 -- -- 67
2020-01-16 10:00:00 6.8 9 Sur 19 Sur 0 -- -- 70
2020-01-16 09:00:00 3.7 12 Sudoeste 15 Sudoeste 0 -- -- 78
2020-01-16 08:00:00 2.3 12 Sudoeste 14 Sur 0 -- -- 84
2020-01-16 07:00:00 2.1 14 Sudoeste 17 Sudoeste 0 -- -- 82
2020-01-16 06:00:00 1.9 9 Sudoeste 11 Sur 0 -- -- 81
2020-01-16 05:00:00 1.7 0 Calma 12 Sudoeste 0 -- -- 80
2020-01-16 04:00:00 1.6 12 Sudoeste 17 Sudoeste 0 -- -- 85
2020-01-16 03:00:00 1.2 6 Sudoeste 12 Sudoeste 0 -- -- 85
2020-01-16 02:00:00 0.9 5 Oeste 11 Sudoeste 0 -- -- 83
2020-01-16 01:00:00 1.6 6 Oeste 10 Sudoeste 0 -- -- 85
2020-01-16 00:00:00 2.9 5 Norte 26 Oeste 0 -- -- 82
2020-01-15 23:00:00 4.9 10 Oeste 34 Oeste 0 -- -- 76
2020-01-15 22:00:00 2.4 2 Noroeste 8 Oeste 0 -- -- 85
2020-01-15 21:00:00 2.4 4 Sudoeste 10 Oeste 0 -- -- 82
2020-01-15 20:00:00 2.4 8 Oeste 12 Oeste 0 -- -- 78
2020-01-15 19:00:00 3 5 Sudoeste 13 Norte 0 -- -- 75
2020-01-15 18:00:00 5.9 2 Sudeste 27 Sudoeste 0 -- -- 65
2020-01-15 17:00:00 9.1 9 Oeste 33 Oeste 0 -- -- 52
2020-01-15 16:00:00 10.3 17 Oeste 39 Oeste 0 -- -- 48
2020-01-15 15:00:00 9.7 28 Oeste 41 Noroeste 0 -- -- 45
2020-01-15 14:00:00 8.8 20 Oeste 32 Oeste 0 -- -- 45
2020-01-15 13:00:00 9 16 Oeste 31 Oeste 0 -- -- 44
2020-01-15 12:00:00 8 23 Oeste 33 Oeste 0 -- -- 46
2020-01-15 11:00:00 6.5 23 Oeste 36 Sudoeste 0 -- -- 52
2020-01-15 10:00:00 2.5 5 Este 21 Norte 0 -- -- 71
2020-01-15 09:00:00 -0.7 3 Oeste 12 Oeste 0 -- -- 74
2020-01-15 08:00:00 -1.8 2 Sudoeste 9 Sudoeste 0 -- -- 80
2020-01-15 07:00:00 -1.3 3 Sudoeste 14 Oeste 0 -- -- 81
2020-01-15 06:00:00 -0.1 17 Oeste 30 Oeste 0 -- -- 69
2020-01-15 05:00:00 -0.3 2 Oeste 15 Sudoeste 0 -- -- 29
2020-01-15 04:00:00 0 9 Sudoeste 15 Sudoeste 0 -- -- 28
2020-01-15 03:00:00 0.4 9 Sudoeste 11 Sudoeste 0 -- -- 35
2020-01-15 02:00:00 0.7 7 Sudoeste 12 Sudoeste 0 -- -- 49
2020-01-15 01:00:00 0.7 4 Sudoeste 10 Sudoeste 0 -- -- 47
2020-01-15 00:00:00 1.1 7 Sudoeste 12 Sudoeste 0 -- -- 43
2020-01-14 23:00:00 1.5 8 Sudoeste 14 Sudoeste 0 -- -- 40
2020-01-14 22:00:00 2.5 9 Sudoeste 15 Oeste 0 -- -- 39
2020-01-14 21:00:00 2.2 5 Sudoeste 10 Sudoeste 0 -- -- 43
2020-01-14 20:00:00 2.7 8 Oeste 13 Oeste 0 -- -- 41
2020-01-14 19:00:00 2.7 4 Oeste 8 Oeste 0 -- -- 43
2020-01-14 18:00:00 4.3 4 Oeste 17 Sudeste 0 -- -- 40
2020-01-14 17:00:00 9.3 11 Sudeste 22 Sur 0 -- -- 30
2020-01-14 16:00:00 11 16 Sur 25 Sudeste 0 -- -- 27
2020-01-14 15:00:00 11.6 18 Sudeste 26 Sur 0 -- -- 26
2020-01-14 14:00:00 11.4 14 Sudeste 25 Sudeste 0 -- -- 26
2020-01-14 13:00:00 11.2 15 Sudeste 24 Sur 0 -- -- 25
2020-01-14 12:00:00 9.8 14 Sudeste 20 Sudeste 0 -- -- 23
2020-01-14 11:00:00 8.7 14 Sudeste 18 Sudeste 0 -- -- 22
2020-01-14 10:00:00 8.2 0 Calma 7 Sudoeste 0 -- -- 22
2020-01-14 09:00:00 3.5 5 Oeste 12 Sudoeste 0 -- -- 25
2020-01-14 08:00:00 0.4 8 Sudoeste 12 Oeste 0 -- -- 29
2020-01-14 07:00:00 2 9 Sudoeste 14 Sudoeste 0 -- -- 25
2020-01-14 06:00:00 2.6 6 Sudoeste 17 Sudoeste 0 -- -- 23
2020-01-14 05:00:00 2.4 4 Nordeste 21 Sudoeste 0 -- -- 24
2020-01-14 04:00:00 2.5 3 Sudoeste 19 Oeste 0 -- -- 21
2020-01-14 03:00:00 0.6 5 Sudoeste 12 Sudoeste 0 -- -- 18
2020-01-14 02:00:00 2.9 8 Oeste 18 Sudoeste 0 -- -- 14
2020-01-14 01:00:00 4.1 4 Noroeste 20 Oeste 0 -- -- 14
2020-01-14 00:00:00 5.2 19 Sudoeste 23 Sudoeste 0 -- -- 18
2020-01-13 23:00:00 4.8 17 Sudoeste 22 Sudoeste 0 -- -- 22
2020-01-13 22:00:00 5.5 10 Sudoeste 17 Sudoeste 0 -- -- 28
2020-01-13 21:00:00 5.6 15 Sudoeste 19 Sudoeste 0 -- -- 31
2020-01-13 20:00:00 5.7 12 Sudoeste 16 Sudoeste 0 -- -- 35
2020-01-13 19:00:00 5 16 Sudoeste 18 Sudoeste 0 -- -- 40
2020-01-13 18:00:00 5.5 5 Sudoeste 7 Sudoeste 0 -- -- 42
2020-01-13 17:00:00 9.6 4 Nordeste 8 Sur 0 -- -- 33
2020-01-13 16:00:00 11.1 7 Sur 15 Sudeste 0 -- -- 29
2020-01-13 15:00:00 11.8 10 Sudeste 15 Sudeste 0 -- -- 28
2020-01-13 14:00:00 12 7 Este 12 Este 0 -- -- 24
2020-01-13 13:00:00 11.7 6 Este 10 Este 0 -- -- 21
2020-01-13 12:00:00 11.3 5 Sudeste 8 Este 0 -- -- 18
2020-01-13 11:00:00 10.1 4 Este 6 Nordeste 0 -- -- 15
2020-01-13 10:00:00 7.9 0 Calma 4 Sudoeste 0 -- -- 23
2020-01-13 09:00:00 2.2 3 Sudoeste 9 Sudoeste 0 -- -- 23
2020-01-13 08:00:00 -0.9 6 Sudoeste 11 Oeste 0 -- -- 28
2020-01-13 07:00:00 -0.9 8 Sudoeste 10 Sudoeste 0 -- -- 26
2020-01-13 06:00:00 0 5 Oeste 11 Sudoeste 0 -- -- 24
2020-01-13 05:00:00 -0.1 6 Oeste 11 Oeste 0 -- -- 27
2020-01-13 04:00:00 -0.3 2 Sudoeste 12 Sudoeste 0 -- -- 29
2020-01-13 03:00:00 0.2 4 Sudoeste 8 Sudoeste 0 -- -- 32
2020-01-13 02:00:00 1.2 3 Norte 12 Sudoeste 0 -- -- 33
2020-01-13 01:00:00 0.9 2 Oeste 12 Sudoeste 0 -- -- 35
2020-01-13 00:00:00 -0.4 7 Oeste 10 Oeste 0 -- -- 40
2020-01-12 23:00:00 -0.1 5 Sudoeste 11 Oeste 0 -- -- 39
2020-01-12 22:00:00 1.6 4 Sudoeste 9 Sudoeste 0 -- -- 38
2020-01-12 21:00:00 2.3 7 Sudoeste 15 Sudoeste 0 -- -- 39
2020-01-12 20:00:00 0.4 6 Sudoeste 13 Sudoeste 0 -- -- 53
2020-01-12 19:00:00 0 0 Calma 9 Sudoeste 0 -- -- 56
2020-01-12 18:00:00 1.8 4 Sudoeste 9 Sudoeste 0 -- -- 48
2020-01-12 17:00:00 7.9 5 Este 13 Este 0 -- -- 33
2020-01-12 16:00:00 9.2 8 Este 18 Este 0 -- -- 30
2020-01-12 15:00:00 10.2 8 Este 21 Oeste 0 -- -- 25
2020-01-12 14:00:00 9.9 9 Noroeste 22 Oeste 0 -- -- 18
2020-01-12 13:00:00 9.1 13 Noroeste 38 Oeste 0 -- -- 18
2020-01-12 12:00:00 7.6 31 Oeste 42 Oeste 0 -- -- 19
2020-01-12 11:00:00 7.1 31 Oeste 43 Oeste 0 -- -- 20
2020-01-12 10:00:00 5.8 17 Oeste 32 Oeste 0 -- -- 19
2020-01-12 09:00:00 2.4 15 Noroeste 26 Oeste 0 -- -- 23
2020-01-12 08:00:00 -0.9 5 Nordeste 9 Nordeste 0 -- -- 32
2020-01-12 07:00:00 -0.1 0 Calma 8 Sudoeste 0 -- -- 26
2020-01-12 06:00:00 -0.4 2 Este 9 Norte 0 -- -- 30
2020-01-12 05:00:00 0 3 Noroeste 9 Oeste 0 -- -- 28
2020-01-12 04:00:00 -0.3 3 Oeste 14 Noroeste 0 -- -- 31
2020-01-12 03:00:00 -0.5 9 Oeste 24 Oeste 0 -- -- 34
2020-01-12 02:00:00 0.4 18 Oeste 22 Oeste 0 -- -- 32
2020-01-12 01:00:00 -0.2 3 Oeste 17 Oeste 0 -- -- 39
2020-01-12 00:00:00 0 9 Oeste 21 Oeste 0 -- -- 38
2020-01-11 23:00:00 0.5 14 Oeste 21 Oeste 0 -- -- 35
2020-01-11 22:00:00 0.4 14 Oeste 20 Oeste 0 -- -- 32
2020-01-11 21:00:00 0.5 17 Oeste 19 Oeste 0 -- -- 34
2020-01-11 20:00:00 0.5 16 Oeste 22 Oeste 0 -- -- 46
2020-01-11 19:00:00 1.8 16 Oeste 21 Oeste 0 -- -- 47
2020-01-11 18:00:00 2.2 12 Oeste 15 Oeste 0 -- -- 36
2020-01-11 17:00:00 8 2 Norte 10 Nordeste 0 -- -- 40
2020-01-11 16:00:00 7.6 6 Este 18 Norte 0 -- -- 44
2020-01-11 15:00:00 8.8 10 Norte 20 Norte 0 -- -- 25
2020-01-11 14:00:00 8.3 8 Norte 19 Noroeste 0 -- -- 27
2020-01-11 13:00:00 7.1 12 Noroeste 20 Norte 0 -- -- 28
2020-01-11 12:00:00 6.2 8 Oeste 19 Noroeste 0 -- -- 33
2020-01-11 11:00:00 5.2 8 Noroeste 19 Noroeste 0 -- -- 38
2020-01-11 10:00:00 3 4 Este 17 Oeste 0 -- -- 54
2020-01-11 09:00:00 1.2 16 Noroeste 24 Noroeste 0 -- -- 53
2020-01-11 08:00:00 0.1 16 Noroeste 26 Noroeste 0 -- -- 63
2020-01-11 07:00:00 0 18 Oeste 26 Noroeste 0 -- -- 68
2020-01-11 06:00:00 0 21 Oeste 26 Noroeste 0 -- -- 68
2020-01-11 05:00:00 -0.3 22 Oeste 32 Oeste 0 -- -- 71
2020-01-11 04:00:00 -0.6 26 Oeste 39 Oeste 0 -- -- 74
2020-01-11 03:00:00 -1.6 34 Oeste 39 Oeste 0 -- -- 86
2020-01-11 02:00:00 -1.2 30 Oeste 36 Oeste 0 -- -- 84
2020-01-11 01:00:00 -0.1 16 Noroeste 31 Oeste 0 -- -- 76
2020-01-11 00:00:00 -0.6 27 Oeste 40 Oeste 0 -- -- 82
2020-01-10 23:00:00 -0.7 31 Oeste 44 Oeste 0 -- -- 87
2020-01-10 22:00:00 -0.6 22 Oeste 45 Oeste 0 -- -- 89
2020-01-10 21:00:00 -0.2 28 Oeste 50 Noroeste 0 -- -- 88
2020-01-10 20:00:00 -0.1 32 Oeste 53 Oeste 0 -- -- 86
2020-01-10 19:00:00 0.2 23 Oeste 40 Oeste 0 -- -- 87
2020-01-10 18:00:00 0.3 15 Noroeste 37 Noroeste 0 -- -- 86
2020-01-10 17:00:00 0.6 14 Noroeste 37 Noroeste 0 -- -- 87
2020-01-10 16:00:00 1.1 14 Norte 35 Norte 0 -- -- 84
2020-01-10 15:00:00 1.7 22 Noroeste 48 Oeste 0 -- -- 80
2020-01-10 14:00:00 1.8 33 Oeste 51 Noroeste 0 -- -- 79
2020-01-10 13:00:00 2.3 30 Noroeste 52 Noroeste 0 -- -- 75
2020-01-10 12:00:00 1.7 33 Noroeste 66 Oeste 0 -- -- 76
2020-01-10 11:00:00 0.8 37 Oeste 72 Oeste 0 -- -- 79
2020-01-10 10:00:00 0.7 24 Noroeste 49 Noroeste 0 -- -- 79
2020-01-10 09:00:00 -0.2 20 Norte 42 Noroeste 0 -- -- 84
2020-01-10 08:00:00 -0.4 17 Noroeste 42 Noroeste 0 -- -- 91
2020-01-10 07:00:00 0 17 Noroeste 58 Oeste 0 -- -- 94
2020-01-10 06:00:00 -0.1 33 Noroeste 54 Oeste 0 -- -- 98
2020-01-10 05:00:00 1.8 35 Oeste 58 Oeste 0 -- -- 90
2020-01-10 04:00:00 3.2 33 Oeste 45 Noroeste 0 -- -- 76
2020-01-10 03:00:00 4.3 34 Oeste 51 Oeste 0 -- -- 70
2020-01-10 02:00:00 4.9 37 Oeste 51 Oeste 0 -- -- 69
2020-01-10 01:00:00 5.2 32 Oeste 46 Oeste 0 -- -- 72
2020-01-10 00:00:00 6 23 Noroeste 36 Noroeste 0 -- -- 68
2020-01-09 23:00:00 6.1 18 Oeste 30 Oeste 0 -- -- 57
2020-01-09 22:00:00 5 3 Este 8 Nordeste 0 -- -- 57
2020-01-09 21:00:00 4.3 3 Sudoeste 8 Sudoeste 0 -- -- 55
2020-01-09 20:00:00 4.5 2 Sudoeste 18 Oeste 0 -- -- 50
2020-01-09 19:00:00 5.9 16 Oeste 26 Oeste 0 -- -- 45
2020-01-09 18:00:00 6.8 15 Sudoeste 20 Sudoeste 0 -- -- 43
2020-01-09 17:00:00 9.8 10 Sudoeste 22 Sudoeste 0 -- -- 38
2020-01-09 16:00:00 10.9 15 Sur 26 Sur 0 -- -- 36
2020-01-09 15:00:00 11.2 19 Sur 27 Sudeste 0 -- -- 32
2020-01-09 14:00:00 11.5 16 Sur 23 Sudeste 0 -- -- 30
2020-01-09 13:00:00 10.9 15 Sudeste 22 Sudeste 0 -- -- 28
2020-01-09 12:00:00 11.1 12 Sur 19 Sudeste 0 -- -- 29
2020-01-09 11:00:00 9.9 9 Sudeste 15 Sur 0 -- -- 29
2020-01-09 10:00:00 7.8 2 Este 4 Sudoeste 0 -- -- 36
2020-01-09 09:00:00 4.3 2 Sudoeste 8 Oeste 0 -- -- 42
2020-01-09 08:00:00 2.1 5 Sudoeste 9 Sudoeste 0 -- -- 47
2020-01-09 07:00:00 1.7 5 Sudoeste 10 Sudoeste 0 -- -- 45
2020-01-09 06:00:00 3.4 4 Oeste 11 Oeste 0 -- -- 41
2020-01-09 05:00:00 3 13 Sudoeste 16 Sudoeste 0 -- -- 37
2020-01-09 04:00:00 3 13 Sudoeste 16 Sudoeste 0 -- -- 35
2020-01-09 03:00:00 1.7 10 Sudoeste 12 Sudoeste 0 -- -- 48
2020-01-09 02:00:00 1.6 4 Sudoeste 10 Sudoeste 0 -- -- 54
2020-01-09 01:00:00 1.6 5 Sudoeste 10 Sudoeste 0 -- -- 63
2020-01-09 00:00:00 1.2 5 Sudoeste 11 Sudoeste 0 -- -- 73
2020-01-08 23:00:00 1.1 3 Sur 9 Sudoeste 0 -- -- 72
2020-01-08 22:00:00 1.9 7 Sudoeste 10 Sudoeste 0 -- -- 69
2020-01-08 21:00:00 2.2 4 Oeste 8 Sudoeste 0 -- -- 70
2020-01-08 20:00:00 2.7 2 Sudoeste 9 Sudoeste 0 -- -- 85
2020-01-08 19:00:00 3.2 4 Sudoeste 6 Sudoeste 0 -- -- 89
2020-01-08 18:00:00 5.1 4 Sur 8 Este 0 -- -- 92
2020-01-08 17:00:00 6.9 4 Este 14 Este 0 -- -- 83
2020-01-08 16:00:00 9.7 6 Este 13 Este 0 -- -- 70
2020-01-08 15:00:00 10.2 8 Este 14 Este 0 -- -- 69
2020-01-08 14:00:00 10.4 9 Este 17 Este 0 -- -- 68
2020-01-08 13:00:00 10.3 6 Este 15 Nordeste 0 -- -- 65
2020-01-08 12:00:00 10.1 7 Nordeste 13 Sudeste 0 -- -- 64
2020-01-08 11:00:00 9.6 3 Este 10 Nordeste 0 -- -- 66
2020-01-08 10:00:00 7.4 5 Nordeste 10 Nordeste 0 -- -- 78
2020-01-08 09:00:00 4.7 0 Calma 9 Oeste 0 -- -- 86
2020-01-08 08:00:00 4.6 14 Sudoeste 35 Oeste 0 -- -- 86
2020-01-08 07:00:00 5.3 16 Oeste 31 Noroeste 0 -- -- 86
2020-01-08 06:00:00 5.1 2 Sur 27 Oeste 0 -- -- 82
2020-01-08 05:00:00 7.3 15 Oeste 50 Oeste 0 -- -- 77
2020-01-08 04:00:00 6.6 36 Oeste 55 Oeste 0 -- -- 79
2020-01-08 03:00:00 8 38 Oeste 58 Noroeste 0 -- -- 71
2020-01-08 02:00:00 8.6 45 Oeste 57 Oeste 0 -- -- 68
2020-01-08 01:00:00 8.6 40 Oeste 53 Oeste 0 -- -- 68
2020-01-08 00:00:00 7.5 24 Oeste 40 Oeste 0 -- -- 69
2020-01-07 23:00:00 7 8 Oeste 38 Oeste 0 -- -- 56
2020-01-07 22:00:00 8 27 Oeste 51 Oeste 0 -- -- 50
2020-01-07 21:00:00 8.7 33 Noroeste 45 Oeste 0 -- -- 45
2020-01-07 20:00:00 9.2 23 Oeste 47 Noroeste 0 -- -- 27
2020-01-07 19:00:00 8.9 28 Oeste 39 Noroeste 0 -- -- 23
2020-01-07 18:00:00 9.1 16 Oeste 26 Oeste 0 -- -- 27
2020-01-07 17:00:00 12 11 Oeste 22 Noroeste 0 -- -- 23
2020-01-07 16:00:00 13.8 10 Oeste 28 Oeste 0 -- -- 20
2020-01-07 15:00:00 13.4 24 Oeste 35 Oeste 0 -- -- 21
2020-01-07 14:00:00 13.9 13 Noroeste 35 Oeste 0 -- -- 23
2020-01-07 13:00:00 12.7 29 Oeste 44 Noroeste 0 -- -- 24
2020-01-07 12:00:00 11.5 36 Oeste 48 Oeste 0 -- -- 24
2020-01-07 11:00:00 10.8 32 Oeste 52 Oeste 0 -- -- 24
2020-01-07 10:00:00 10.3 37 Oeste 52 Oeste 0 -- -- 25
2020-01-07 09:00:00 9.3 36 Oeste 50 Oeste 0 -- -- 26
2020-01-07 08:00:00 8.7 33 Oeste 45 Noroeste 0 -- -- 27
2020-01-07 07:00:00 8.5 34 Oeste 47 Oeste 0 -- -- 26
2020-01-07 06:00:00 7.6 33 Oeste 41 Oeste 0 -- -- 25
2020-01-07 05:00:00 7.9 35 Oeste 44 Noroeste 0 -- -- 21
2020-01-07 04:00:00 6.5 22 Oeste 36 Oeste 0 -- -- 33
2020-01-07 03:00:00 3.2 2 Sudoeste 9 Nordeste 0 -- -- 38
2020-01-07 02:00:00 5.1 3 Sur 42 Oeste 0 -- -- 37
2020-01-07 01:00:00 7.4 18 Oeste 37 Oeste 0 -- -- 33
2020-01-07 00:00:00 7.2 27 Oeste 50 Oeste 0 -- -- 36
2020-01-06 23:00:00 7.2 36 Oeste 51 Oeste 0 -- -- 37
2020-01-06 22:00:00 7.8 31 Oeste 45 Oeste 0 -- -- 40
2020-01-06 21:00:00 6.7 14 Oeste 24 Oeste 0 -- -- 36
2020-01-06 20:00:00 5.5 3 Sur 6 Este 0 -- -- 40
2020-01-06 19:00:00 6.8 3 Sudoeste 8 Sudoeste 0 -- -- 38
2020-01-06 18:00:00 7.3 3 Sudoeste 18 Oeste 0 -- -- 35
2020-01-06 17:00:00 11.1 10 Noroeste 27 Oeste 0 -- -- 30
2020-01-06 16:00:00 13.1 12 Noroeste 21 Oeste 0 -- -- 29
2020-01-06 15:00:00 13.8 12 Este 24 Nordeste 0 -- -- 31
2020-01-06 14:00:00 14 13 Noroeste 23 Norte 0 -- -- 28
2020-01-06 13:00:00 14.1 7 Este 17 Este 0 -- -- 29
2020-01-06 12:00:00 12.7 8 Sudeste 11 Este 0 -- -- 30
2020-01-06 11:00:00 12.1 3 Este 6 Sudeste 0 -- -- 28
2020-01-06 10:00:00 10.2 2 Nordeste 4 Nordeste 0 -- -- 32